Back to catalog

STARLINK-32890

AliveCommunicationsVLEO
NORAD 62896·PAYLOAD·🇺🇸 United States

Launched Feb 4, 2025 from Cape Canaveral Space Force Station

Loading…

Next Passes (next 24 hours)

TLE

FreshSource: CelesTrak SupGP

Epoch: Sep 14, 2026, 22:44 UTC

1 62896C 25024T   26257.94770833 -.00013920  00000+0 -50419-3 0  2572
2 62896  43.0029 336.0385 0001371 267.7925 186.0517 15.27585963    19

Track STARLINK-32890 in real time with AllMySat

Download on the App Store